EW4767 Weather Reports


Display with metric or nautical units.
time (UTC)temp
F
wind
direction
speed
MPH
gust
MPH
rain 1hr
in
rain 24hr
in
rain mn
in
humidity
%
barometer
mb
20260503033040 36 280 0.0 2.0 0.00 0.03 0.03 74 1011.8
20260503031525 37 258 1.0 3.0 0.00 0.03 0.03 73 1011.8
20260503030022 39 259 0.0 2.0 0.00 0.03 0.03 69 1011.8
20260503024522 40 261 0.0 0.0 0.00 0.03 0.03 67 1011.9
20260503023017 40 287 0.0 3.0 0.00 0.03 0.03 67 1012.2
20260503021514 41 269 1.0 2.0 0.00 0.03 0.03 67 1012.3
20260503020028 41 277 0.0 0.0 0.00 0.03 0.03 66 1012.4
20260503014506 41 277 0.0 2.0 0.00 0.03 0.03 64 1012.4
20260503013007 42 265 1.0 3.0 0.00 0.03 0.03 63 1012.4
20260503011524 43 260 0.0 2.0 0.00 0.03 0.03 59 1012.3
20260503010018 42 260 2.0 6.0 0.00 0.03 0.03 62 1012.3
20260503004547 42 276 1.0 4.0 0.00 0.03 0.03 58 1012.1
20260503003013 43 303 1.0 4.0 0.00 0.03 0.03 55 1012.0
20260503001508 44 306 2.0 10.0 0.00 0.03 0.03 53 1012.0
20260503000008 45 329 3.0 11.0 0.00 0.03 0.03 51 1011.9
20260502234525 46 327 6.0 11.0 0.00 0.03 0.03 50 1011.8
20260502233023 46 293 4.0 12.0 0.00 0.03 0.03 50 1011.7
20260502231518 48 317 4.0 10.0 0.00 0.03 0.03 47 1011.5
20260502230016 48 300 6.0 11.0 0.00 0.03 0.03 45 1011.6
20260502224512 49 275 4.0 13.0 0.00 0.03 0.03 45 1011.4
20260502223013 49 288 4.0 11.0 0.00 0.03 0.03 44 1011.3
20260502221528 50 303 5.0 11.0 0.00 0.03 0.03 43 1011.2
20260502220026 50 267 5.0 15.0 0.00 0.03 0.03 43 1011.2
20260502214522 50 290 6.0 15.0 0.00 0.03 0.03 42 1011.1
20260502213020 51 317 5.0 13.0 0.00 0.03 0.03 40 1011.0
20260502211533 52 324 10.0 20.0 0.00 0.03 0.03 38 1011.0
20260502210017 52 293 10.0 18.0 0.00 0.03 0.03 37 1011.0
20260502204514 52 293 10.0 18.0 0.00 0.03 0.03 40 1011.0
20260502203026 53 321 9.0 19.0 0.00 0.03 0.03 41 1011.0
20260502201525 51 348 7.0 15.0 0.00 0.03 0.03 43 1010.8
20260502200026 51 269 11.0 19.0 0.00 0.03 0.03 42 1011.1
20260502194523 53 266 7.0 17.0 0.00 0.03 0.03 44 1011.2
20260502193018 54 255 4.0 19.0 0.00 0.03 0.03 44 1011.0
20260502191515 54 285 9.0 15.0 0.00 0.03 0.03 43 1011.0
20260502190033 53 279 9.0 15.0 0.00 0.03 0.03 43 1011.1
20260502184545 52 251 4.0 15.0 0.00 0.03 0.03 45 1011.1
20260502183038 53 276 7.0 13.0 0.00 0.03 0.03 46 1010.9
20260502181536 54 225 10.0 20.0 0.00 0.03 0.03 46 1011.1
20260502163012 50 286 3.0 11.0 0.00 0.03 0.03 56 1011.4
20260502161506 48 352 6.0 14.0 0.00 0.03 0.03 59 1011.5
20260502151512 48 290 5.0 13.0 0.00 0.03 0.03 64 1011.9
20260502123021 44 271 4.0 9.0 0.00 0.03 0.03 81 1011.8
20260502121521 44 276 6.0 12.0 0.00 0.03 0.03 83 1011.7
20260502114513 43 281 5.0 7.0 0.00 0.03 0.03 86 1011.8
20260502113008 43 302 1.0 7.0 0.00 0.03 0.03 87 1011.7
20260502111524 42 252 3.0 8.0 0.00 0.03 0.03 88 1011.4
20260502110024 42 318 2.0 7.0 0.00 0.03 0.03 89 1011.3
20260502104524 42 315 2.0 4.0 0.00 0.03 0.03 90 1011.2
20260502103019 42 294 3.0 10.0 0.00 0.03 0.03 90 1010.9
20260502101540 42 292 2.0 7.0 0.00 0.03 0.03 91 1010.9
20260502091524 44 269 0.0 2.0 0.00 0.03 0.03 92 1010.6
20260502071522 44 265 0.0 0.0 0.00 0.03 0.03 93 1010.4
20260502070010 45 248 0.0 0.0 0.00 0.03 0.03 93 1010.6
20260502064508 45 254 0.0 0.0 0.00 0.03 0.03 93 1010.6
20260502063008 44 248 0.0 0.0 0.00 0.03 0.03 93 1010.6
20260502061507 45 265 0.0 0.0 0.00 0.03 0.03 93 1010.4
20260502060011 45 265 0.0 0.0 0.00 0.03 0.03 93 1010.8
20260502054508 45 280 0.0 0.0 0.02 0.03 0.03 93 1010.9
20260502053004 45 246 0.0 0.0 0.03 0.03 0.03 92 1010.9
20260502051508 45 246 0.0 0.0 0.03 0.03 0.03 91 1011.0
20260502050010 45 246 0.0 0.0 0.03 0.03 0.03 88 1011.0
20260502044513 46 251 0.0 3.0 0.01 0.01 0.01 86 1011.0
20260502043012 45 271 1.0 2.0 0.00 0.00 0.00 89 1011.2
20260502041509 46 263 0.0 2.0 0.00 0.00 0.00 86 1010.9
20260502040006 47 263 0.0 2.0 0.00 0.00 0.00 81 1011.0
20260502034521 47 283 0.0 2.0 0.00 0.00 0.00 78 1011.1